Weather Service Report


895 
ASUS41 KGYX 290110
RWRGYX
WEATHER ROUNDUP FOR MAINE AND NEW HAMPSHIRE
NATIONAL WEATHER SERVICE GRAY ME
800 PM EST WED JAN 28 2015

MEZ002-005-006-010-012-015-018-020-021-024-026-027-029-290200-
MAINE
  
CITY           SKY/WX    TMP DP  RH WIND       PRES   REMARKS
PORTLAND       PTCLDY    21   3  45 NW6       30.13R                  
SANFORD        PTCLDY    18   5  57 W6        30.12R                  
BAR HARBOR     CLEAR     12  10  92 W3        30.07R                  
WISCASSET      PTCLDY    19   7  59 VRB5      30.12R                  
ROCKLAND       PTCLDY    19   7  58 CALM      30.07R                  
FRYEBURG       PTCLDY     7   2  80 NW6       30.11R                  
LEWISTONAUBURN PTCLDY    18   0  45 CALM      30.10R                  
AUGUSTA        PTCLDY    16   3  56 N8        30.09R                  
WATERVILLE     CLEAR     18   3  53 NW9       30.06R                  
BANGOR         PTCLDY    17   6  62 NW10      30.07R WCI   5          
GREENVILLE       N/A      8  -1  66 N12G20    29.98R WCI  -7          
MILLINOCKET    CLEAR     16   2  54 NW12      30.05R WCI   3          
HOULTON        PTCLDY    13   0  56 N13G22    30.00R WCI  -2          
PRESQUE ISLE   PTCLDY    10  -2  56 MISG      30.03R                  
FRENCHVILLE    PTCLDY     7  -2  66 NW18      29.99R WCI -12          
CARIBOU        PTCLDY     8  -3  61 N9        30.01R                  
$$

NHZ002-005-008-009-011-012-014-290200-
NEW HAMPSHIRE
  
CITY           SKY/WX    TMP DP  RH WIND       PRES   REMARKS
PORTSMOUTH     PTCLDY    18   5  57 NW6       30.13R                  
ROCHESTER      PTCLDY    17   3  54 NW13      30.11R WCI   4          
NASHUA           N/A     18   2  49 NW8       30.16R                  
MANCHESTER     PTCLDY    19   2  47 N7        30.13R                  
CONCORD        CLEAR     16  -1  47 NW6       30.16R                  
LACONIA        CLEAR     16   0  48 SW10      30.11R WCI   3          
PLYMOUTH       FAIR      15   0  51 W12G18    30.16R WCI   2          
BERLIN         PTCLDY    -5 -10  79 CALM      30.15R                  
WHITEFIELD     PTCLDY    -5  -9  83 CALM      30.19R                  
JAFFREY        CLEAR     13   0  56 CALM      30.12R                  
KEENE          CLEAR     10   1  67 CALM      30.18R                  
LEBANON        CLEAR      8  -5  55 NE3       30.21R                  
MT WASHINGTON  PTCLDY     7 -18  30 N45G56      N/A  WCI -20          
$$

VTZ005-007-008-290200-
VERMONT
  
CITY           SKY/WX    TMP DP  RH WIND       PRES   REMARKS
ST JOHNSBURY     N/A      3  -3  76 MISG      30.21R                  
MONTPELIER     CLEAR      2  -7  66 S3        30.21R                  
BURLINGTON     CLEAR      9  -6  50 E7        30.26R                  
$$

MAZ007-012-024-CTZ003-RIZ002-NYZ038-NYZ072-290200-
SOUTHERN NEW ENGLAND AND NY
  
CITY           SKY/WX    TMP DP  RH WIND       PRES   REMARKS
BOSTON         PTCLDY    22   7  52 NW8       30.15R                  
WORCESTER      CLEAR     18  -1  43 NW14G23   30.09R WCI   4          
NANTUCKET      CLOUDY    26  16  65 NW13      30.11R WCI  15          
PROVIDENCE     CLEAR     22   7  52 NW6       30.16R                  
HARTFORD       PTCLDY    23   2  40 NW12      30.19R WCI  12          
ALBANY         CLEAR     15   0  51 N8        30.27R                  
NEW YORK CITY  CLEAR     30   6  36 NW12      30.22R                  
$$

ANZ081-ANZ082-ANZ150-NHZ014-MEZ023>029-290200-
COASTAL MARINE OBSERVATIONS
  
STATION/POSITION TIME  TEMP    WIND        PRES    WAVE
                       AIR SEA DIR/SP/G            HT/PER
                 (UTC) (F)     (DEG/KT/KT) (MB)    (FT/S)
MOUNT DESERT ROC 0100   23                 1017.1R
MATINICUS ROCK   0100          330/ 21/ 24 1018.4R
PORTLAND WX BUOY 0050   26 41  340/ 16/ 19 1019.7R   4/11
WELLS            0000   21 34  320/  7/ 10 1018.6R
ISLE OF SHOALS   0100   23     320/ 15/ 17 1019.8R
JEFFREYS LEDGE   0021      44                N/A     7/10
CASHES LEDGE BUO 0050   26 44  350/ 19/ 25 1018.2R   8/ 6
$$

.............KEY..............
   WCI - WIND CHILL
   TC  - TEMPERATURE IN CELSIUS
   VSB - VISIBILITY IN MILES
   HX  - HEAT INDEX
   FAIR- INDICATES FEW OR NO CLOUDS BELOW 12,000 FT, WITH NO 
         SIGNIFICANT WEATHER AND/OR OBSTRUCTIONS TO VISIBILITY.



Return to Home page


Western Regional Climate Center, wrcc@dri.edu